Location: Diebersbach
(48.5163°N, 8.0558°E)
Time: 04:02:30
(UTC+00:00)

USA 229 - Pass Details

Date: 28 October 2021
Orbit: 946 x 1266 km, 63.4° (Epoch: 25 November)

Event Time Altitude Azimuth Distance (km) Brightness Sun altitude
Rises 21:52:43 0° 302° (WNW) 3,817 7.1 -51.3°
Reaches altitude 10° 21:55:50 10° 316° (NW) 2,916 6.4 -51.6°
Enters shadow 21:56:38 13° 321° (NW) 2,717 6.2 -51.6°
